THY3169 LTFM-LTFH

Flight info

Callsign THY3169
Flight time 1h 0m
Altitude 33000
Route EKAWE UT641 ABSAX UN743 GAKSU UT310 SIN W86 BAFRA
Aircraft B738/M-SDE2E3FGHIRWXY/LB1

Departure

Time 2026-05-09 02:00
Airport İstanbul Airport (LTFM)

Arrival

Time 2026-05-09 03:00
Airport Samsun-Çarşamba Airport (LTFH)
Time Latitude Longitude Altitude Speed Heading
2026-05-09 01:45 41.26184 28.74897 329 ft 0 kts 251°
2026-05-09 01:52 41.26187 28.74910 329 ft 4 kts 251°
2026-05-09 01:52 41.26194 28.74937 328 ft 3 kts 252°
2026-05-09 01:52 41.26198 28.74970 329 ft 4 kts 287°
2026-05-09 01:52 41.26184 28.74996 328 ft 4 kts 338°
2026-05-09 01:53 41.26168 28.75003 331 ft 0 kts 341°
2026-05-09 01:57 41.26171 28.75002 329 ft 2 kts 341°
2026-05-09 01:57 41.26198 28.74994 333 ft 6 kts 357°
2026-05-09 01:57 41.26238 28.75041 331 ft 10 kts 69°
2026-05-09 01:58 41.26245 28.75153 333 ft 14 kts 87°
2026-05-09 01:58 41.26246 28.75294 333 ft 16 kts 89°
2026-05-09 01:58 41.26248 28.75435 333 ft 15 kts 89°
2026-05-09 01:58 41.26249 28.75570 333 ft 14 kts 90°
2026-05-09 01:59 41.26295 28.75665 330 ft 15 kts
2026-05-09 01:59 41.26547 28.75661 330 ft 69 kts 359°
2026-05-09 01:59 41.27260 28.75648 332 ft 133 kts 359°
2026-05-09 01:59 41.28330 28.75637 546 ft 162 kts
2026-05-09 02:00 41.29463 28.75748 1146 ft 171 kts 20°
2026-05-09 02:00 41.30558 28.76513 1665 ft 180 kts 31°
2026-05-09 02:00 41.31655 28.77411 2206 ft 193 kts 31°
2026-05-09 02:00 41.32858 28.78391 2591 ft 213 kts 30°
2026-05-09 02:01 41.34202 28.79436 2886 ft 234 kts 28°
2026-05-09 02:01 41.35690 28.80560 3066 ft 259 kts 28°
2026-05-09 02:01 41.37332 28.81785 3457 ft 276 kts 27°
2026-05-09 02:01 41.39164 28.82515 4092 ft 277 kts 356°
2026-05-09 02:02 41.41075 28.82304 4910 ft 276 kts 351°
2026-05-09 02:02 41.42989 28.82039 5681 ft 277 kts 351°
2026-05-09 02:02 41.44918 28.81777 6446 ft 280 kts 351°
2026-05-09 02:02 41.46876 28.81517 7142 ft 285 kts 351°
2026-05-09 02:03 41.48834 28.81265 7830 ft 289 kts 351°
2026-05-09 02:03 41.50852 28.81010 8577 ft 293 kts 352°
2026-05-09 02:03 41.52898 28.80755 9339 ft 298 kts 352°
2026-05-09 02:03 41.54981 28.80520 10096 ft 303 kts 356°
2026-05-09 02:04 41.57103 28.81088 10442 ft 327 kts 25°
2026-05-09 02:04 41.58914 28.83070 10626 ft 351 kts 54°
2026-05-09 02:04 41.59956 28.86090 10926 ft 366 kts 76°
2026-05-09 02:04 41.60424 28.89458 11526 ft 371 kts 86°
2026-05-09 02:05 41.60546 28.92899 12279 ft 372 kts 91°
2026-05-09 02:05 41.60544 28.96321 13030 ft 375 kts 93°
2026-05-09 02:05 41.60514 28.99820 13800 ft 378 kts 93°
2026-05-09 02:05 41.60495 29.03358 14486 ft 383 kts 92°
2026-05-09 02:06 41.60495 29.06928 15188 ft 386 kts 92°
2026-05-09 02:06 41.60515 29.10528 15923 ft 389 kts 91°
2026-05-09 02:06 41.60549 29.14169 16629 ft 393 kts 91°
2026-05-09 02:07 41.60643 29.21554 18006 ft 401 kts 90°
2026-05-09 02:07 41.60695 29.25300 18643 ft 405 kts 90°
2026-05-09 02:07 41.60749 29.29073 19265 ft 408 kts 90°
2026-05-09 02:07 41.60803 29.32867 19906 ft 409 kts 90°
2026-05-09 02:08 41.60856 29.36686 20538 ft 412 kts 91°
2026-05-09 02:08 41.60907 29.40526 21126 ft 415 kts 91°
2026-05-09 02:08 41.60958 29.44390 21703 ft 417 kts 91°
2026-05-09 02:08 41.61008 29.48286 22290 ft 420 kts 91°
2026-05-09 02:09 41.61056 29.52199 22811 ft 424 kts 91°
2026-05-09 02:09 41.61103 29.56164 23310 ft 428 kts 91°
2026-05-09 02:09 41.61149 29.60144 23817 ft 430 kts 91°
2026-05-09 02:09 41.61194 29.64107 24279 ft 432 kts 91°
2026-05-09 02:10 41.61238 29.68137 24748 ft 434 kts 92°
2026-05-09 02:10 41.61191 29.72177 25188 ft 436 kts 94°
2026-05-09 02:10 41.61070 29.76238 25620 ft 438 kts 95°
2026-05-09 02:10 41.60963 29.80310 26041 ft 440 kts 94°
2026-05-09 02:11 41.60896 29.84411 26435 ft 443 kts 93°
2026-05-09 02:11 41.60871 29.88542 26804 ft 447 kts 92°
2026-05-09 02:11 41.60877 29.92704 27197 ft 449 kts 92°
2026-05-09 02:11 41.60903 29.96888 27603 ft 451 kts 91°
2026-05-09 02:12 41.60939 30.01085 27990 ft 453 kts 91°
2026-05-09 02:12 41.60978 30.05302 28359 ft 455 kts 91°
2026-05-09 02:12 41.61018 30.09543 28719 ft 457 kts 91°
2026-05-09 02:12 41.61056 30.13804 29068 ft 459 kts 91°
2026-05-09 02:13 41.61091 30.18084 29404 ft 461 kts 91°
2026-05-09 02:13 41.61124 30.22375 29851 ft 461 kts 91°
2026-05-09 02:13 41.61155 30.26643 30340 ft 458 kts 91°
2026-05-09 02:13 41.61183 30.30898 30789 ft 456 kts 91°
2026-05-09 02:14 41.61210 30.35121 31218 ft 454 kts 91°
2026-05-09 02:14 41.61234 30.39284 31624 ft 453 kts 91°
2026-05-09 02:14 41.61257 30.43485 32029 ft 451 kts 91°
2026-05-09 02:14 41.61278 30.47674 32448 ft 450 kts 91°
2026-05-09 02:15 41.61298 30.51839 32850 ft 448 kts 91°
2026-05-09 02:15 41.61316 30.56005 33083 ft 450 kts 91°
2026-05-09 02:15 41.61332 30.60213 33074 ft 453 kts 91°
2026-05-09 02:16 41.61360 30.68621 33065 ft 451 kts 91°
2026-05-09 02:16 41.61384 30.76987 33081 ft 449 kts 91°
2026-05-09 02:17 41.61400 30.85327 33081 ft 448 kts 91°
2026-05-09 02:17 41.61411 30.93660 33089 ft 448 kts 91°
2026-05-09 02:18 41.61415 31.01987 33071 ft 448 kts 91°
2026-05-09 02:18 41.61414 31.10329 33090 ft 450 kts 91°
2026-05-09 02:19 41.61406 31.18716 33096 ft 452 kts 91°
2026-05-09 02:19 41.61392 31.27079 33102 ft 454 kts 91°
2026-05-09 02:20 41.61372 31.35539 33099 ft 456 kts 91°
2026-05-09 02:20 41.61346 31.44036 33092 ft 458 kts 91°
2026-05-09 02:21 41.61314 31.52543 33101 ft 458 kts 91°
2026-05-09 02:21 41.61275 31.61078 33111 ft 459 kts 91°
2026-05-09 02:22 41.61230 31.69621 33111 ft 460 kts 91°
2026-05-09 02:22 41.61178 31.78107 33109 ft 459 kts 91°
2026-05-09 02:23 41.61121 31.86634 33111 ft 459 kts 91°
2026-05-09 02:23 41.61057 31.95148 33114 ft 458 kts 91°
2026-05-09 02:24 41.60987 32.03651 33118 ft 457 kts 91°
2026-05-09 02:24 41.60910 32.12140 33118 ft 456 kts 91°
2026-05-09 02:25 41.60828 32.20608 33115 ft 455 kts 91°
2026-05-09 02:25 41.60739 32.29058 33127 ft 455 kts 91°
2026-05-09 02:26 41.60645 32.37518 33128 ft 455 kts 91°
2026-05-09 02:26 41.60544 32.45985 33126 ft 455 kts 91°
2026-05-09 02:27 41.60437 32.54453 33133 ft 456 kts 91°
2026-05-09 02:27 41.60324 32.62871 33123 ft 456 kts 91°
2026-05-09 02:28 41.60204 32.71349 33144 ft 457 kts 91°
2026-05-09 02:28 41.60077 32.79853 33149 ft 458 kts 91°
2026-05-09 02:29 41.59945 32.88367 33147 ft 458 kts 91°
2026-05-09 02:29 41.59806 32.96879 33158 ft 458 kts 91°
2026-05-09 02:30 41.59660 33.05395 33163 ft 458 kts 91°
2026-05-09 02:30 41.59509 33.13860 33166 ft 459 kts 91°
2026-05-09 02:31 41.59351 33.22393 33165 ft 459 kts 91°
2026-05-09 02:31 41.59215 33.29488 33167 ft 459 kts 91°
2026-05-09 02:32 41.59045 33.38016 33168 ft 459 kts 92°
2026-05-09 02:32 41.58840 33.47935 33186 ft 459 kts 91°
2026-05-09 02:33 41.58686 33.55094 33182 ft 459 kts 91°
2026-05-09 02:33 41.58499 33.63566 33187 ft 459 kts 92°
2026-05-09 02:34 41.58304 33.72094 33185 ft 459 kts 92°
2026-05-09 02:34 41.58102 33.80628 33180 ft 460 kts 92°
2026-05-09 02:35 41.57894 33.89172 33190 ft 460 kts 92°
2026-05-09 02:35 41.57680 33.97724 33188 ft 461 kts 92°
2026-05-09 02:35 41.57571 34.01974 32716 ft 467 kts 92°
2026-05-09 02:36 41.57458 34.06305 32078 ft 465 kts 92°
2026-05-09 02:36 41.57345 34.10614 31362 ft 465 kts 91°
2026-05-09 02:36 41.57229 34.14934 30616 ft 465 kts 91°
2026-05-09 02:36 41.57112 34.19244 30066 ft 461 kts 91°
2026-05-09 02:37 41.56994 34.23504 29440 ft 457 kts 91°
2026-05-09 02:37 41.56877 34.27730 28892 ft 451 kts 91°
2026-05-09 02:37 41.56760 34.31893 28344 ft 447 kts 91°
2026-05-09 02:37 41.56642 34.36017 27801 ft 442 kts 91°
2026-05-09 02:38 41.56523 34.40100 27257 ft 438 kts 91°
2026-05-09 02:38 41.56406 34.44091 26735 ft 434 kts 92°
2026-05-09 02:38 41.56287 34.48119 26216 ft 431 kts 92°
2026-05-09 02:38 41.56167 34.52095 25701 ft 427 kts 92°
2026-05-09 02:39 41.56048 34.56041 25189 ft 424 kts 92°
2026-05-09 02:39 41.55927 34.59966 24678 ft 421 kts 92°
2026-05-09 02:39 41.55806 34.63858 24160 ft 419 kts 92°
2026-05-09 02:39 41.55685 34.67736 23624 ft 417 kts 92°
2026-05-09 02:40 41.55563 34.71589 23034 ft 414 kts 92°
2026-05-09 02:40 41.55440 34.75413 22493 ft 410 kts 92°
2026-05-09 02:40 41.55317 34.79201 21993 ft 406 kts 92°
2026-05-09 02:40 41.55194 34.82961 21479 ft 402 kts 92°
2026-05-09 02:41 41.55071 34.86680 20982 ft 399 kts 92°
2026-05-09 02:41 41.54950 34.90324 20488 ft 395 kts 92°
2026-05-09 02:41 41.54827 34.93978 19994 ft 392 kts 92°
2026-05-09 02:41 41.54704 34.97599 19506 ft 389 kts 92°
2026-05-09 02:42 41.54580 35.01191 19024 ft 386 kts 92°
2026-05-09 02:42 41.54457 35.04758 18540 ft 384 kts 92°
2026-05-09 02:42 41.54333 35.08313 17983 ft 382 kts 92°
2026-05-09 02:42 41.54209 35.11841 17462 ft 379 kts 92°
2026-05-09 02:43 41.54085 35.15337 16959 ft 376 kts 92°
2026-05-09 02:43 41.53960 35.18809 16471 ft 372 kts 92°
2026-05-09 02:43 41.53836 35.22247 15991 ft 369 kts 92°
2026-05-09 02:43 41.53712 35.25656 15523 ft 366 kts 92°
2026-05-09 02:44 41.53588 35.29037 15051 ft 363 kts 92°
2026-05-09 02:44 41.53464 35.32399 14586 ft 361 kts 93°
2026-05-09 02:44 41.53341 35.35695 14133 ft 359 kts 93°
2026-05-09 02:44 41.53216 35.39012 13619 ft 357 kts 93°
2026-05-09 02:45 41.53091 35.42310 13125 ft 354 kts 93°
2026-05-09 02:45 41.52966 35.45582 12632 ft 352 kts 93°
2026-05-09 02:45 41.52841 35.48839 12164 ft 349 kts 93°
2026-05-09 02:45 41.52732 35.51624 11764 ft 348 kts 93°
2026-05-09 02:47 41.52693 35.52640 11623 ft 347 kts 92°
2026-05-09 02:47 41.52568 35.55843 11170 ft 345 kts 92°
2026-05-09 02:47 41.52443 35.59024 10876 ft 338 kts 92°
2026-05-09 02:47 41.52322 35.62074 10693 ft 329 kts 93°
2026-05-09 02:48 41.52200 35.65130 10465 ft 321 kts 92°
2026-05-09 02:48 41.52082 35.68063 10309 ft 312 kts 92°
2026-05-09 02:48 41.51969 35.70873 10168 ft 303 kts 92°
2026-05-09 02:48 41.51856 35.73647 10029 ft 295 kts 92°
2026-05-09 02:49 41.51745 35.76357 9747 ft 292 kts 92°
2026-05-09 02:49 41.51635 35.79048 9451 ft 290 kts 92°
2026-05-09 02:49 41.51525 35.81727 9153 ft 288 kts 93°
2026-05-09 02:49 41.51415 35.84386 8860 ft 286 kts 93°
2026-05-09 02:50 41.51305 35.87028 8567 ft 285 kts 93°
2026-05-09 02:50 41.51195 35.89661 8267 ft 284 kts 93°
2026-05-09 02:50 41.51084 35.92285 7976 ft 282 kts 93°
2026-05-09 02:50 41.50973 35.94892 7683 ft 281 kts 93°
2026-05-09 02:51 41.50783 35.97476 7376 ft 279 kts 102°
2026-05-09 02:51 41.50276 35.99935 7095 ft 278 kts 108°
2026-05-09 02:51 41.49674 36.02376 6808 ft 277 kts 109°
2026-05-09 02:51 41.49064 36.04811 6516 ft 276 kts 109°
2026-05-09 02:52 41.48463 36.07249 6197 ft 276 kts 109°
2026-05-09 02:52 41.47873 36.09677 5899 ft 275 kts 109°
2026-05-09 02:52 41.47295 36.12095 5619 ft 273 kts 108°
2026-05-09 02:52 41.46724 36.14497 5339 ft 271 kts 108°
2026-05-09 02:53 41.46161 36.16881 5063 ft 269 kts 108°
2026-05-09 02:53 41.45602 36.19252 4797 ft 267 kts 109°
2026-05-09 02:53 41.45054 36.21577 4673 ft 258 kts 108°
2026-05-09 02:53 41.44524 36.23831 4562 ft 251 kts 108°
2026-05-09 02:54 41.44010 36.26011 4445 ft 243 kts 109°
2026-05-09 02:54 41.43512 36.28123 4334 ft 235 kts 109°
2026-05-09 02:54 41.43030 36.30167 4243 ft 227 kts 109°
2026-05-09 02:54 41.42554 36.32160 4037 ft 225 kts 112°
2026-05-09 02:55 41.41753 36.33862 3860 ft 218 kts 135°
2026-05-09 02:55 41.40708 36.35300 3698 ft 214 kts 133°
2026-05-09 02:55 41.39717 36.36730 3553 ft 206 kts 134°
2026-05-09 02:55 41.38767 36.38077 3482 ft 197 kts 134°
2026-05-09 02:56 41.37822 36.39401 3247 ft 196 kts 135°
2026-05-09 02:56 41.36889 36.40706 2988 ft 193 kts 135°
2026-05-09 02:56 41.35973 36.41985 2739 ft 189 kts 134°
2026-05-09 02:56 41.35077 36.43238 2485 ft 185 kts 134°
2026-05-09 02:57 41.34199 36.44467 2244 ft 180 kts 134°
2026-05-09 02:57 41.33361 36.45637 2016 ft 174 kts 134°
2026-05-09 02:57 41.32532 36.46798 1780 ft 171 kts 135°
2026-05-09 02:57 41.31736 36.47911 1562 ft 159 kts 134°
2026-05-09 02:58 41.31011 36.48926 1347 ft 145 kts 135°
2026-05-09 02:58 41.30343 36.49860 1157 ft 136 kts 134°
2026-05-09 02:58 41.29693 36.50770 988 ft 136 kts 133°
2026-05-09 02:58 41.29038 36.51687 812 ft 137 kts 132°
2026-05-09 02:59 41.28386 36.52601 631 ft 135 kts 133°
2026-05-09 02:59 41.27741 36.53503 442 ft 135 kts 133°
2026-05-09 02:59 41.27096 36.54407 278 ft 134 kts 134°
2026-05-09 02:59 41.26458 36.55300 103 ft 133 kts 134°
2026-05-09 03:00 41.25836 36.56166 25 ft 121 kts 136°
2026-05-09 03:00 41.25333 36.56865 8 ft 87 kts 133°
2026-05-09 03:00 41.24999 36.57334 11 ft 53 kts 134°
2026-05-09 03:00 41.24829 36.57571 10 ft 18 kts 134°
2026-05-09 03:01 41.24772 36.57633 10 ft 6 kts 99°
2026-05-09 03:01 41.24794 36.57645 10 ft 5 kts 305°
2026-05-09 03:01 41.24821 36.57591 11 ft 13 kts 304°
2026-05-09 03:01 41.24899 36.57472 11 ft 20 kts 314°
2026-05-09 03:02 41.25014 36.57311 11 ft 28 kts 313°
2026-05-09 03:02 41.25163 36.57105 10 ft 33 kts 314°
2026-05-09 03:02 41.25324 36.56880 8 ft 33 kts 314°
2026-05-09 03:02 41.25480 36.56663 -8 ft 31 kts 315°
2026-05-09 03:03 41.25623 36.56464 3 ft 29 kts 313°
2026-05-09 03:03 41.25760 36.56275 21 ft 27 kts 313°
2026-05-09 03:03 41.25886 36.56095 26 ft 26 kts 313°
2026-05-09 03:03 41.25993 36.55948 21 ft 18 kts 313°
2026-05-09 03:04 41.26020 36.55848 23 ft 11 kts 265°
2026-05-09 03:04 41.25974 36.55774 24 ft 11 kts 206°
2026-05-09 03:04 41.25914 36.55713 25 ft 11 kts 221°
2026-05-09 03:04 41.25860 36.55648 26 ft 10 kts 214°
2026-05-09 03:05 41.25817 36.55598 24 ft 5 kts 223°
2026-05-09 03:05 41.25811 36.55590 23 ft 0 kts 223°